CZ-6A DEB

Satellite information

Favourite Embed

Satellite Type and Status

DEBRISIN ORBIT

Key statistics

Satellite CZ-6A DEB at a glance.

Uptime

963

Days in orbit

Revolutions

≈ 14.3

Per day

Orbit

SSO

Sun Synchronous Orbit

Inclination

98.8

Latest

Satellite identification and parameters

Extended collection of information and parameters for CZ-6A DEB.

Object identification

Identified? True

Debris? True

Object name: CZ-6A DEB

International designator: 2022-151PL

Object number (NORAD): 54634

Object ID (CCSDS): 54634

Country: PEOPLES REPUBLIC OF CHINA (PRC)

Current information (Y/N): Y

RCS size: SMALL

Orbital parameters

Period: 100.849 minutes

Inclination: 98.7856 deg

SMA: 7176.963 km

Apoapsis: 822.124 km

Periapsis: 775.533 km

RAAN: 190.5714 deg

Eccentricy: 0.0032459

Argument of periapsis: 227.4821 deg

Mean anomaly: 132.3617 deg

Mean motion: 14.27879861 rev/day

Mean motion (dot): 0.00003364 rev/day2

B* drag term: 0.0013694 1/REarth

Two-line elements (TLE)

Creation date: June 29, 2025, 10:26 p.m.

Reference frame: TEME

Reference center: EARTH

Epoch: June 29, 2025, 2:06 p.m. UTC

TLE line 0: 0 CZ-6A DEB

TLE line 1: 1 54634U 22151PL 25180.58799996 .00003364 00000-0 13694-2 0 9992

TLE line 2: 2 54634 98.7856 190.5714 0032459 227.4821 132.3617 14.27879861134760

Live tracking on map

Real-time ground track for satellite CZ-6A DEB.

In-orbit conjunctions

A list of the most updated potential collisions computed for object CZ-6A DEB.

Target Orbit TCA Probability of collision Miss distance Type
FENGYUN 1C SSO 2025-05-19 00:14:42 0.0002515981 523.0 (m) PAYLOAD

Associated space launch

Chinese satellite reported for atmospheric/ocean/environmental/spatial parameter research purposes, details TBD.

CZ-6A DEB was lifted into orbit during the mission ‘Long March 6A | Yunhai 3’, on board a Long March 6A space rocket.

The launch took place on Nov. 11, 2022, 10:52 p.m. from Launch Complex 9A.

For more information about the launch, click the button.

Launch to space Long March 6A | Yunhai 3
Long March 6A | Yunhai 3

Agency: N/A

Status: Launch Successful

Launch date: Nov. 11, 2022, 10:52 p.m. UTC

Rocket: Long March 6A

Launch pad: Launch Complex 9A

Location: Taiyuan Satellite Launch Center, People's Republic of China

...

Latest news about this satellite

There are no fresh news available about this satellite. Check back as we update our databases every day.


Newsletter sign-up

Weekly statistics, charts and insights to help you stay on top of the space industry.